| time (UTC) | temp F | wind direction | speed knots | gust knots | rain 1hr in | rain 24hr in | rain mn in | humidity % | barometer mb |
| 20260831154449 | 72 | 180 | 1.7 | 5.2 | 0.00 | 0.04 | 0.00 | 76 | 1059.5 |
| 20260831153949 | 72 | 157 | 2.6 | 7.0 | 0.00 | 0.04 | 0.00 | 76 | 1030.5 |
| 20260831153449 | 72 | 180 | 2.6 | 9.6 | 0.00 | 0.04 | 0.00 | 76 | 1056.4 |
| 20260831152949 | 72 | 180 | 7.0 | 9.6 | 0.02 | 0.04 | 0.00 | 77 | 1068.9 |
| 20260831152748 | 72 | 180 | 5.2 | 9.6 | 0.02 | 0.04 | 0.00 | 77 | 1093.9 |
| 20260831152449 | 72 | 157 | 6.1 | 8.7 | 0.02 | 0.04 | 0.00 | 77 | 1076.8 |
| 20260831151949 | 72 | 180 | 2.6 | 7.0 | 0.02 | 0.04 | 0.00 | 78 | 1042.0 |
| 20260831151449 | 71 | 202 | 1.7 | 5.2 | 0.02 | 0.04 | 0.00 | 77 | 1021.2 |
| 20260831150949 | 71 | 180 | 3.5 | 7.0 | 0.02 | 0.04 | 0.00 | 77 | 1043.8 |
| 20260831150449 | 71 | 180 | 3.5 | 7.0 | 0.04 | 0.04 | 0.00 | 77 | 1072.1 |
| 20260831145949 | 71 | 135 | 0.0 | 5.2 | 0.04 | 0.04 | 0.00 | 77 | 1075.3 |
| 20260831145448 | 70 | 202 | 2.6 | 7.0 | 0.04 | 0.04 | 0.00 | 77 | 1075.3 |
| 20260831144949 | 70 | 112 | 7.0 | 8.7 | 0.04 | 0.04 | 0.00 | 76 | 1031.9 |
| 20260831144449 | 70 | 180 | 7.0 | 8.7 | 0.04 | 0.04 | 0.00 | 74 | 1047.6 |
| 20260831143949 | 71 | 157 | 5.2 | 8.7 | 0.04 | 0.04 | 0.00 | 73 | 1072.1 |
| 20260831143449 | 71 | 135 | 2.6 | 7.8 | 0.02 | 0.02 | 0.00 | 72 | 1056.4 |
| 20260831142949 | 71 | 157 | 1.7 | 3.5 | 0.02 | 0.02 | 0.00 | 70 | 1065.8 |
| 20260831142449 | 72 | 157 | 2.6 | 3.5 | 0.02 | 0.02 | 0.00 | 69 | 1059.2 |
| 20260831142148 | 72 | 157 | 1.7 | 3.5 | 0.02 | 0.02 | 0.00 | 69 | 1092.1 |
| 20260831141949 | 72 | 180 | 2.6 | 3.5 | 0.02 | 0.02 | 0.00 | 69 | 1092.9 |
| 20260831141449 | 73 | 202 | 2.6 | 5.2 | 0.02 | 0.02 | 0.00 | 69 | 1062.7 |
| 20260831140949 | 73 | 180 | 1.7 | 4.3 | 0.02 | 0.02 | 0.00 | 68 | 1056.4 |
| 20260831140449 | 73 | 180 | 1.7 | 4.3 | 0.00 | 0.00 | 0.00 | 67 | 1072.1 |
| 20260831135949 | 74 | 157 | 3.5 | 3.5 | 0.00 | 0.00 | 0.00 | 66 | 1084.6 |
| 20260831135450 | 74 | 180 | 1.7 | 2.6 | 0.00 | 0.00 | 0.00 | 66 | 1084.7 |
| 20260831134949 | 74 | 180 | 1.7 | 2.6 | 0.00 | 0.00 | 0.00 | 66 | 1073.7 |
| 20260831134848 | 74 | 157 | 1.7 | 1.7 | 0.00 | 0.00 | 0.00 | 66 | 1079.9 |
| 20260831134449 | 74 | 180 | 0.0 | 1.7 | 0.00 | 0.00 | 0.00 | 66 | 1079.9 |
| 20260831133949 | 74 | 225 | 0.0 | 0.9 | 0.00 | 0.00 | 0.00 | 65 | 1069.0 |
| 20260831133449 | 73 | 157 | 0.0 | 1.7 | 0.00 | 0.00 | 0.00 | 65 | 1056.4 |
| 20260831132949 | 73 | 22 | 0.0 | 3.5 | 0.00 | 0.00 | 0.00 | 65 | 1068.9 |
| 20260831132449 | 74 | 180 | 2.6 | 2.6 | 0.00 | 0.00 | 0.00 | 65 | 1072.1 |
| 20260831131949 | 73 | 180 | 2.6 | 3.5 | 0.00 | 0.00 | 0.00 | 64 | 1075.2 |
| 20260831131548 | 73 | 225 | 2.6 | 2.6 | 0.00 | 0.00 | 0.00 | 64 | 1061.0 |
| 20260831131449 | 73 | 247 | 0.0 | 4.3 | 0.00 | 0.00 | 0.00 | 63 | 1046.9 |
| 20260831130949 | 74 | 180 | 4.3 | 4.3 | 0.00 | 0.00 | 0.00 | 63 | 1040.6 |
| 20260831130449 | 74 | 157 | 4.3 | 7.0 | 0.00 | 0.00 | 0.00 | 61 | 1072.1 |
| 20260831125949 | 74 | 180 | 6.1 | 6.1 | 0.00 | 0.00 | 0.00 | 60 | 1053.2 |
| 20260831125449 | 75 | 202 | 4.3 | 10.4 | 0.00 | 0.00 | 0.00 | 58 | 1053.2 |
| 20260831124949 | 76 | 202 | 7.0 | 14.8 | 0.00 | 0.00 | 0.00 | 57 | 1090.9 |
| 20260831124449 | 78 | 202 | 9.6 | 14.8 | 0.00 | 0.00 | 0.00 | 54 | 1081.5 |
| 20260831124248 | 78 | 225 | 8.7 | 18.2 | 0.00 | 0.00 | 0.00 | 53 | 1075.3 |
| 20260831123949 | 79 | 225 | 14.8 | 18.2 | 0.00 | 0.00 | 0.00 | 51 | 1087.8 |
| 20260831123449 | 80 | 225 | 12.2 | 12.2 | 0.00 | 0.00 | 0.00 | 48 | 1065.8 |
| 20260831122949 | 81 | 225 | 6.1 | 12.2 | 0.00 | 0.00 | 0.00 | 47 | 1084.8 |
| 20260831122449 | 82 | 247 | 7.8 | 7.8 | 0.00 | 0.00 | 0.00 | 46 | 1035.1 |
| 20260831121950 | 82 | 202 | 2.6 | 6.1 | 0.00 | 0.00 | 0.00 | 46 | 1042.9 |
| 20260831121449 | 82 | 180 | 0.9 | 4.3 | 0.00 | 0.00 | 0.00 | 45 | 1068.9 |
| 20260831120948 | 83 | 202 | 1.7 | 4.3 | 0.00 | 0.00 | 0.00 | 44 | 1075.3 |
| 20260831120449 | 84 | 202 | 2.6 | 5.2 | 0.00 | 0.00 | 0.00 | 44 | 988.6 |
| 20260831115949 | 84 | 225 | 2.6 | 3.5 | 0.00 | 0.00 | 0.00 | 43 | 1080.5 |
| 20260831115449 | 84 | 202 | 1.7 | 2.6 | 0.00 | 0.00 | 0.00 | 43 | 1062.6 |
| 20260831114949 | 85 | 225 | 2.6 | 4.3 | 0.00 | 0.00 | 0.00 | 42 | 1065.8 |
| 20260831114449 | 85 | 202 | 3.5 | 5.2 | 0.00 | 0.00 | 0.00 | 42 | 1078.4 |
| 20260831113949 | 85 | 157 | 3.5 | 5.2 | 0.00 | 0.00 | 0.00 | 42 | 1056.4 |
| 20260831113648 | 86 | 202 | 2.6 | 5.2 | 0.00 | 0.00 | 0.00 | 42 | 1056.4 |
| 20260831113449 | 86 | 157 | 3.5 | 5.2 | 0.00 | 0.00 | 0.00 | 41 | 1050.1 |
| 20260831112949 | 86 | 225 | 2.6 | 5.2 | 0.00 | 0.00 | 0.00 | 41 | 1065.8 |
| 20260831112449 | 87 | 157 | 1.7 | 5.2 | 0.00 | 0.00 | 0.00 | 41 | 1061.1 |
| 20260831111949 | 87 | 225 | 3.5 | 5.2 | 0.00 | 0.00 | 0.00 | 40 | 1062.7 |
| 20260831111449 | 88 | 202 | 6.1 | 9.6 | 0.00 | 0.00 | 0.00 | 40 | 1097.2 |
| 20260831110949 | 88 | 202 | 3.5 | 5.2 | 0.00 | 0.00 | 0.00 | 40 | 1048.6 |
| 20260831110449 | 89 | 202 | 1.7 | 7.8 | 0.00 | 0.00 | 0.00 | 40 | 1086.3 |
| 20260831110348 | 89 | 180 | 4.3 | 9.6 | 0.00 | 0.00 | 0.00 | 40 | 1081.6 |
| 20260831105949 | 89 | 135 | 7.8 | 9.6 | 0.00 | 0.00 | 0.00 | 40 | 1078.5 |
| 20260831105449 | 88 | 157 | 6.1 | 7.0 | 0.00 | 0.00 | 0.00 | 41 | 1073.7 |
| 20260831104950 | 88 | 180 | 1.7 | 7.0 | 0.00 | 0.00 | 0.00 | 42 | 1065.8 |
| 20260831104450 | 87 | 225 | 4.3 | 9.6 | 0.00 | 0.00 | 0.00 | 41 | 1086.2 |
| 20260831103949 | 87 | 180 | 2.6 | 8.7 | 0.00 | 0.00 | 0.00 | 41 | 1058.6 |
| 20260831103449 | 88 | 180 | 1.7 | 7.0 | 0.00 | 0.00 | 0.00 | 40 | 1065.8 |
| 20260831103048 | 89 | 270 | 5.2 | 8.7 | 0.00 | 0.00 | 0.00 | 40 | 1080.0 |
| 20260831102949 | 89 | 270 | 2.6 | 9.6 | 0.00 | 0.00 | 0.00 | 40 | 1079.9 |
| 20260831102449 | 90 | 180 | 3.5 | 6.1 | 0.00 | 0.00 | 0.00 | 40 | 1031.9 |
| 20260831101950 | 89 | 135 | 5.2 | 7.0 | 0.00 | 0.00 | 0.00 | 41 | 1072.1 |
| 20260831101450 | 89 | 157 | 4.3 | 7.0 | 0.00 | 0.00 | 0.00 | 41 | 1087.8 |
| 20260831100949 | 89 | 157 | 2.6 | 8.7 | 0.00 | 0.00 | 0.00 | 41 | 1083.1 |
| 20260831100449 | 88 | 157 | 8.7 | 8.7 | 0.00 | 0.00 | 0.00 | 42 | 1046.9 |
| 20260831095949 | 88 | 202 | 5.2 | 6.1 | 0.00 | 0.00 | 0.00 | 42 | 1019.3 |
| 20260831095748 | 88 | 180 | 5.2 | 7.8 | 0.00 | 0.00 | 0.00 | 42 | 1053.2 |
| 20260831095450 | 88 | 180 | 1.7 | 7.8 | 0.00 | 0.00 | 0.00 | 42 | 1047.8 |
| 20260831094950 | 87 | 180 | 5.2 | 8.7 | 0.00 | 0.00 | 0.00 | 42 | 1011.4 |
| 20260831094450 | 87 | 157 | 5.2 | 9.6 | 0.00 | 0.00 | 0.00 | 42 | 1010.4 |
| 20260831093949 | 87 | 180 | 4.3 | 7.0 | 0.00 | 0.00 | 0.00 | 43 | 1078.4 |
| 20260831093449 | 86 | 135 | 1.7 | 7.0 | 0.00 | 0.00 | 0.00 | 43 | 1052.2 |
| 20260831092950 | 87 | 135 | 2.6 | 9.6 | 0.00 | 0.00 | 0.00 | 42 | 1076.7 |
| 20260831092448 | 87 | 202 | 0.9 | 19.1 | 0.00 | 0.00 | 0.00 | 42 | 1062.7 |
| 20260831091949 | 87 | 247 | 0.0 | 8.7 | 0.00 | 0.00 | 0.00 | 41 | 1054.8 |
| 20260831091450 | 88 | 90 | 7.0 | 9.6 | 0.00 | 0.00 | 0.00 | 41 | 1047.6 |
| 20260831090949 | 88 | 0 | 0.0 | 5.2 | 0.00 | 0.00 | 0.00 | 40 | 1069.0 |
| 20260831090449 | 89 | 135 | 1.7 | 6.1 | 0.00 | 0.00 | 0.00 | 40 | 1073.0 |
| 20260831085949 | 89 | 135 | 3.5 | 6.1 | 0.00 | 0.00 | 0.00 | 40 | 1071.4 |
| 20260831085449 | 90 | 112 | 2.6 | 7.0 | 0.00 | 0.00 | 0.00 | 40 | 1058.2 |
| 20260831085149 | 90 | 112 | 7.0 | 7.0 | 0.00 | 0.00 | 0.00 | 40 | 1059.5 |
| 20260831084949 | 90 | 157 | 5.2 | 5.2 | 0.00 | 0.00 | 0.00 | 40 | 1026.6 |
| 20260831084450 | 90 | 157 | 4.3 | 8.7 | 0.00 | 0.00 | 0.00 | 40 | 1056.4 |
| 20260831083950 | 90 | 225 | 2.6 | 7.8 | 0.00 | 0.00 | 0.00 | 40 | 1065.5 |
| 20260831083449 | 90 | 157 | 0.0 | 3.5 | 0.00 | 0.00 | 0.00 | 40 | 1079.1 |
| 20260831082950 | 91 | 67 | 2.6 | 7.0 | 0.00 | 0.00 | 0.00 | 40 | 1030.3 |
| 20260831082450 | 91 | 157 | 1.7 | 4.3 | 0.00 | 0.00 | 0.00 | 39 | 1060.3 |
| 20260831081950 | 91 | 112 | 3.5 | 7.0 | 0.00 | 0.00 | 0.00 | 39 | 1061.4 |
| 20260831081849 | 91 | 90 | 5.2 | 7.0 | 0.00 | 0.00 | 0.00 | 39 | 1042.2 |
| 20260831081450 | 91 | 112 | 7.0 | 7.0 | 0.00 | 0.00 | 0.00 | 39 | 1076.2 |
| 20260831080450 | 93 | 135 | 0.0 | 6.1 | 0.00 | 0.00 | 0.00 | 38 | 1055.7 |
| 20260831075950 | 94 | 112 | 3.5 | 5.2 | 0.00 | 0.00 | 0.00 | 38 | 1035.0 |
| 20260831075450 | 94 | 112 | 3.5 | 3.5 | 0.00 | 0.00 | 0.00 | 39 | 1054.7 |
| 20260831074950 | 93 | 135 | 0.0 | 2.6 | 0.00 | 0.00 | 0.00 | 40 | 1034.8 |
| 20260831074612 | 93 | 112 | 2.6 | 4.3 | 0.00 | 0.00 | 0.00 | 39 | 1050.1 |
| 20260831074549 | 93 | 67 | 0.9 | 4.3 | 0.00 | 0.00 | 0.00 | 39 | 1050.6 |
| 20260831074450 | 93 | 112 | 2.6 | 4.3 | 0.00 | 0.00 | 0.00 | 39 | 1050.1 |
| 20260831073950 | 94 | 90 | 0.0 | 4.3 | 0.00 | 0.00 | 0.00 | 38 | 1016.6 |
| 20260831073450 | 95 | 135 | 0.9 | 4.3 | 0.00 | 0.00 | 0.00 | 37 | 1053.2 |
| 20260831073356 | 96 | 22 | 0.9 | 1.7 | 0.00 | 0.00 | 0.00 | 39 | 1071.7 |
| 20260831073032 | 96 | 112 | 2.6 | 3.5 | 0.00 | 0.00 | 0.00 | 38 | 1064.4 |
| 20260831072950 | 96 | 112 | 2.6 | 3.5 | 0.00 | 0.00 | 0.00 | 38 | 1064.4 |
| 20260831072450 | 96 | 22 | 0.9 | 1.7 | 0.00 | 0.00 | 0.00 | 39 | 1071.7 |
| 20260831071950 | 95 | 135 | 0.0 | 1.7 | 0.00 | 0.00 | 0.00 | 40 | 1053.2 |
| 20260831071450 | 93 | 315 | 0.0 | 1.7 | 0.00 | 0.00 | 0.00 | 40 | 1022.3 |
| 20260831071249 | 93 | 315 | 0.0 | 1.7 | 0.00 | 0.00 | 0.00 | 41 | 1059.5 |
| 20260831071055 | 93 | 112 | 0.0 | 1.7 | 0.00 | 0.00 | 0.00 | 41 | 1042.5 |
| 20260831070950 | 93 | 112 | 0.0 | 1.7 | 0.00 | 0.00 | 0.00 | 41 | 1042.5 |
| 20260831070635 | 93 | 337 | 0.0 | 1.7 | 0.00 | 0.00 | 0.00 | 41 | 1081.2 |
| 20260831070550 | 93 | 337 | 0.0 | 1.7 | 0.00 | 0.00 | 0.00 | 41 | 1081.2 |
| 20260831070450 | 93 | 337 | 0.0 | 1.7 | 0.00 | 0.00 | 0.00 | 41 | 1081.2 |
| 20260831070429 | 92 | 22 | 0.0 | 0.9 | 0.00 | 0.00 | 0.00 | 42 | 1068.9 |
| 20260831070408 | 91 | 337 | 0.0 | 2.6 | 0.00 | 0.00 | 0.00 | 42 | 1055.6 |
| 20260831070039 | 92 | 22 | 0.0 | 0.9 | 0.00 | 0.00 | 0.00 | 42 | 1068.9 |
| 20260831065950 | 92 | 22 | 0.0 | 0.9 | 0.00 | 0.00 | 0.00 | 42 | 1068.9 |
| 20260831065943 | 92 | 292 | 0.0 | 0.0 | 0.00 | 0.00 | 0.00 | 43 | 1014.9 |
| 20260831065837 | 91 | 135 | 0.0 | 0.9 | 0.00 | 0.00 | 0.00 | 45 | 1086.3 |
| 20260831065808 | 88 | 202 | 0.9 | 1.7 | 0.00 | 0.00 | 0.00 | 48 | 1045.6 |
| 20260831065726 | 84 | 157 | 0.0 | 0.0 | 0.00 | 0.00 | 0.00 | 51 | 1054.5 |
| 20260831065450 | 91 | 337 | 0.0 | 2.6 | 0.00 | 0.00 | 0.00 | 42 | 1055.6 |
| 20260831064950 | 92 | 292 | 0.0 | 0.0 | 0.00 | 0.00 | 0.00 | 43 | 1014.9 |
| 20260831064629 | 84 | 225 | 0.0 | 1.7 | 0.00 | 0.00 | 0.00 | 51 | 1080.6 |
| 20260831064450 | 91 | 135 | 0.0 | 0.9 | 0.00 | 0.00 | 0.00 | 45 | 1086.3 |
| 20260831064343 | 84 | 225 | 0.0 | 1.7 | 0.00 | 0.00 | 0.00 | 51 | 1080.6 |
| 20260831063949 | 88 | 202 | 0.9 | 1.7 | 0.00 | 0.00 | 0.00 | 48 | 1045.6 |
| 20260831063450 | 85 | 157 | 0.9 | 1.7 | 0.00 | 0.00 | 0.00 | 50 | 1076.8 |
| 20260831062950 | 84 | 157 | 0.0 | 0.0 | 0.00 | 0.00 | 0.00 | 51 | 1054.5 |
| 20260831062919 | 84 | 157 | 0.9 | 1.7 | 0.00 | 0.00 | 0.00 | 52 | 1070.5 |
| 20260831062450 | 84 | 225 | 0.0 | 1.7 | 0.00 | 0.00 | 0.00 | 51 | 1080.6 |
| 20260831061950 | 84 | 112 | 1.7 | 2.6 | 0.00 | 0.00 | 0.00 | 51 | 994.8 |
| 20260831061450 | 84 | 157 | 0.9 | 1.7 | 0.00 | 0.00 | 0.00 | 52 | 1070.5 |
| 20260831061035 | 84 | 112 | 0.9 | 2.6 | 0.00 | 0.00 | 0.00 | 54 | 1069.0 |
| 20260831060950 | 84 | 112 | 0.9 | 2.6 | 0.00 | 0.00 | 0.00 | 54 | 1069.0 |
| 20260831060829 | 82 | 202 | 0.0 | 1.7 | 0.00 | 0.00 | 0.00 | 58 | 1065.9 |
| 20260831060649 | 82 | 157 | 0.9 | 2.6 | 0.00 | 0.00 | 0.00 | 56 | 1050.6 |
| 20260831060450 | 82 | 202 | 0.0 | 1.7 | 0.00 | 0.00 | 0.00 | 58 | 1065.9 |
| 20260831055950 | 79 | 45 | 0.0 | 0.0 | 0.00 | 0.00 | 0.00 | 63 | 1078.4 |
| 20260831055450 | 76 | 67 | 0.0 | 1.7 | 0.00 | 0.00 | 0.00 | 69 | 1061.1 |
| 20260831054950 | 72 | 112 | 1.7 | 1.7 | 0.00 | 0.00 | 0.00 | 75 | 1062.6 |
| 20260831054450 | 68 | 112 | 0.0 | 2.6 | 0.00 | 0.00 | 0.00 | 75 | 1061.3 |
| 20260831053950 | 67 | 135 | 1.7 | 2.6 | 0.00 | 0.00 | 0.00 | 75 | 1064.2 |
| 20260831053450 | 67 | 157 | 1.7 | 3.5 | 0.00 | 0.00 | 0.00 | 75 | 1059.5 |
| 20260831053349 | 67 | 135 | 2.6 | 3.5 | 0.00 | 0.00 | 0.00 | 76 | 1048.5 |
| 20260831053023 | 67 | 157 | 1.7 | 3.5 | 0.00 | 0.00 | 0.00 | 77 | 1069.0 |
| 20260831052950 | 67 | 157 | 1.7 | 3.5 | 0.00 | 0.00 | 0.00 | 77 | 1069.0 |
| 20260831052503 | 67 | 157 | 1.7 | 2.6 | 0.00 | 0.00 | 0.00 | 78 | 1020.9 |
| 20260831051950 | 66 | 112 | 0.9 | 1.7 | 0.00 | 0.00 | 0.00 | 80 | 1078.8 |
| 20260831051450 | 65 | 157 | 0.0 | 0.0 | 0.00 | 0.00 | 0.00 | 81 | 991.1 |
| 20260831050950 | 64 | 112 | 0.0 | 0.0 | 0.00 | 0.00 | 0.00 | 80 | 1050.1 |
| 20260831050450 | 64 | 135 | 0.0 | 0.9 | 0.00 | 0.00 | 0.00 | 80 | 1065.9 |
| 20260831050049 | 63 | 112 | 0.0 | 0.9 | 0.00 | 0.00 | 0.00 | 80 | 1009.9 |
| 20260831045950 | 63 | 157 | 0.9 | 0.9 | 0.00 | 0.00 | 0.00 | 80 | 1002.7 |
| 20260831045450 | 63 | 135 | 0.0 | 0.9 | 0.00 | 0.00 | 0.00 | 80 | 1076.5 |
| 20260831044950 | 63 | 135 | 0.0 | 18.2 | 0.00 | 0.00 | 0.00 | 80 | 1015.6 |
| 20260831044450 | 63 | 67 | 0.0 | 0.0 | 0.00 | 0.00 | 0.00 | 80 | 1056.4 |
| 20260831043950 | 62 | 157 | 0.0 | 0.0 | 0.00 | 0.00 | 0.00 | 80 | 1019.3 |
| 20260831043450 | 62 | 157 | 0.0 | 0.0 | 0.00 | 0.00 | 0.00 | 80 | 1025.6 |
| 20260831042950 | 62 | 22 | 0.0 | 0.0 | 0.00 | 0.00 | 0.00 | 80 | 1056.4 |
| 20260831042749 | 62 | 22 | 0.0 | 0.0 | 0.00 | 0.00 | 0.00 | 80 | 1069.0 |
| 20260831042450 | 62 | 45 | 0.0 | 0.0 | 0.00 | 0.00 | 0.00 | 80 | 1065.8 |
| 20260831042027 | 62 | 157 | 0.0 | 0.0 | 0.00 | 0.00 | 0.00 | 80 | 1078.4 |
| 20260831041950 | 62 | 157 | 0.0 | 0.0 | 0.00 | 0.00 | 0.00 | 80 | 1078.4 |
| 20260831041528 | 62 | 157 | 0.0 | 0.0 | 0.00 | 0.00 | 0.00 | 80 | 1043.8 |
| 20260831041450 | 62 | 157 | 0.0 | 0.0 | 0.00 | 0.00 | 0.00 | 80 | 1043.8 |
| 20260831040950 | 62 | 112 | 0.0 | 0.0 | 0.00 | 0.00 | 0.00 | 80 | 1072.1 |
| 20260831040450 | 62 | 112 | 0.0 | 0.0 | 0.00 | 0.00 | 0.00 | 80 | 1064.3 |
| 20260831035951 | 62 | 157 | 0.0 | 0.0 | 0.00 | 0.00 | 0.00 | 80 | 1069.0 |
| 20260831035449 | 62 | 135 | 0.0 | 0.0 | 0.00 | 0.00 | 0.00 | 80 | 1079.3 |
| 20260831034950 | 61 | 157 | 0.0 | 1.7 | 0.00 | 0.00 | 0.00 | 80 | 1070.6 |
| 20260831034450 | 61 | 135 | 0.0 | 0.9 | 0.00 | 0.00 | 0.00 | 80 | 1073.7 |
| 20260831033950 | 61 | 135 | 0.0 | 0.0 | 0.00 | 0.00 | 0.00 | 79 | 1040.6 |
| 20260831033450 | 61 | 135 | 0.0 | 1.7 | 0.00 | 0.00 | 0.00 | 79 | 1073.7 |
| 20260831032950 | 61 | 112 | 0.0 | 0.0 | 0.00 | 0.00 | 0.00 | 79 | 1068.9 |
| 20260831032522 | 61 | 112 | 0.0 | 0.0 | 0.00 | 0.00 | 0.00 | 79 | 1069.0 |
| 20260831032450 | 61 | 112 | 0.0 | 0.0 | 0.00 | 0.00 | 0.00 | 79 | 1069.0 |
| 20260831032149 | 61 | 112 | 0.0 | 0.0 | 0.00 | 0.00 | 0.00 | 79 | 1064.2 |
| 20260831031950 | 61 | 157 | 0.0 | 0.0 | 0.00 | 0.00 | 0.00 | 79 | 1064.2 |
| 20260831031529 | 61 | 157 | 0.0 | 0.9 | 0.00 | 0.00 | 0.00 | 79 | 1067.8 |
| 20260831031450 | 61 | 157 | 0.0 | 0.9 | 0.00 | 0.00 | 0.00 | 79 | 1067.8 |
| 20260831030950 | 61 | 112 | 0.0 | 0.9 | 0.00 | 0.00 | 0.00 | 79 | 1078.4 |
| 20260831030450 | 61 | 135 | 0.0 | 0.9 | 0.00 | 0.00 | 0.00 | 79 | 1080.0 |
| 20260831030026 | 61 | 112 | 0.0 | 1.7 | 0.00 | 0.00 | 0.00 | 79 | 1065.8 |
| 20260831025950 | 61 | 112 | 0.0 | 1.7 | 0.00 | 0.00 | 0.00 | 79 | 1065.8 |
| 20260831025450 | 61 | 135 | 0.9 | 1.7 | 0.00 | 0.00 | 0.00 | 79 | 1083.1 |
| 20260831025026 | 61 | 135 | 1.7 | 1.7 | 0.00 | 0.00 | 0.00 | 78 | 1048.7 |
| 20260831024950 | 61 | 135 | 1.7 | 1.7 | 0.00 | 0.00 | 0.00 | 78 | 1048.7 |
| 20260831024849 | 61 | 135 | 1.7 | 1.7 | 0.00 | 0.00 | 0.00 | 78 | 1027.1 |
| 20260831024450 | 61 | 112 | 0.9 | 1.7 | 0.00 | 0.00 | 0.00 | 78 | 1053.2 |
| 20260831023951 | 61 | 135 | 1.7 | 2.6 | 0.00 | 0.00 | 0.00 | 78 | 1068.9 |
| 20260831023450 | 61 | 112 | 0.0 | 1.7 | 0.00 | 0.00 | 0.00 | 77 | 1033.5 |
| 20260831022950 | 61 | 112 | 0.0 | 0.0 | 0.00 | 0.00 | 0.00 | 77 | 1028.8 |
| 20260831022450 | 61 | 67 | 0.0 | 0.0 | 0.00 | 0.00 | 0.00 | 77 | 1081.5 |
| 20260831021950 | 62 | 112 | 0.0 | 0.0 | 0.00 | 0.00 | 0.00 | 77 | 1069.0 |
| 20260831021549 | 62 | 112 | 0.0 | 0.0 | 0.00 | 0.00 | 0.00 | 76 | 1053.2 |
| 20260831021450 | 62 | 112 | 0.0 | 0.0 | 0.00 | 0.00 | 0.00 | 76 | 1089.3 |
| 20260831020950 | 62 | 112 | 0.0 | 0.0 | 0.00 | 0.00 | 0.00 | 76 | 1072.1 |
| 20260831020450 | 62 | 112 | 0.0 | 0.0 | 0.00 | 0.00 | 0.00 | 76 | 1084.7 |
| 20260831015950 | 62 | 45 | 0.0 | 0.9 | 0.00 | 0.00 | 0.00 | 75 | 998.0 |
| 20260831015450 | 62 | 90 | 0.9 | 1.7 | 0.00 | 0.00 | 0.00 | 75 | 1078.4 |
| 20260831014950 | 62 | 90 | 0.9 | 0.9 | 0.00 | 0.00 | 0.00 | 75 | 1081.5 |
| 20260831014450 | 63 | 157 | 0.0 | 1.7 | 0.00 | 0.00 | 0.00 | 75 | 1027.2 |
| 20260831014249 | 63 | 135 | 0.0 | 1.7 | 0.00 | 0.00 | 0.00 | 75 | 1058.1 |
| 20260831013950 | 63 | 180 | 0.9 | 1.7 | 0.00 | 0.00 | 0.00 | 75 | 1078.4 |
| 20260831013450 | 63 | 225 | 0.0 | 0.9 | 0.00 | 0.00 | 0.00 | 75 | 1065.8 |
| 20260831013021 | 63 | 225 | 0.0 | 0.0 | 0.00 | 0.00 | 0.00 | 74 | 1083.1 |
| 20260831012950 | 63 | 225 | 0.0 | 0.0 | 0.00 | 0.00 | 0.00 | 74 | 1083.1 |
| 20260831012450 | 63 | 67 | 0.0 | 0.0 | 0.00 | 0.00 | 0.00 | 74 | 1062.7 |
| 20260831011950 | 63 | 45 | 0.0 | 0.0 | 0.00 | 0.00 | 0.00 | 74 | 1078.4 |
| 20260831011450 | 63 | 45 | 0.0 | 0.0 | 0.00 | 0.00 | 0.00 | 74 | 1065.8 |
| 20260831010949 | 63 | 202 | 0.0 | 1.7 | 0.00 | 0.00 | 0.00 | 73 | 1046.9 |
| 20260831010450 | 63 | 157 | 0.0 | 0.9 | 0.00 | 0.00 | 0.00 | 73 | 1084.5 |
| 20260831005950 | 63 | 157 | 0.0 | 0.0 | 0.00 | 0.00 | 0.00 | 73 | 1069.0 |
| 20260831005450 | 63 | 180 | 0.0 | 1.7 | 0.00 | 0.00 | 0.00 | 72 | 1084.6 |
| 20260831004950 | 64 | 225 | 0.0 | 1.7 | 0.00 | 0.00 | 0.00 | 72 | 1028.8 |
| 20260831004451 | 64 | 202 | 0.0 | 0.9 | 0.00 | 0.00 | 0.00 | 71 | 1059.5 |
| 20260831003950 | 64 | 180 | 0.0 | 0.9 | 0.00 | 0.00 | 0.00 | 71 | 1038.2 |
| 20260831003650 | 64 | 180 | 0.0 | 0.9 | 0.00 | 0.00 | 0.00 | 71 | 1067.4 |
| 20260831003451 | 64 | 157 | 0.0 | 1.7 | 0.00 | 0.00 | 0.00 | 71 | 1056.4 |
| 20260831002950 | 64 | 180 | 1.7 | 1.7 | 0.00 | 0.00 | 0.00 | 70 | 1076.8 |
| 20260831002450 | 64 | 202 | 0.0 | 1.7 | 0.00 | 0.00 | 0.00 | 70 | 1062.7 |
| 20260831001950 | 64 | 135 | 0.9 | 1.7 | 0.00 | 0.00 | 0.00 | 70 | 1072.1 |
| 20260831001450 | 64 | 157 | 0.0 | 0.0 | 0.00 | 0.00 | 0.00 | 69 | 1047.6 |
| 20260831000950 | 65 | 135 | 0.0 | 1.7 | 0.00 | 0.00 | 0.00 | 69 | 1080.4 |
| 20260831000450 | 65 | 180 | 0.0 | 1.7 | 0.00 | 0.00 | 0.00 | 69 | 1036.6 |
| 20260831000349 | 65 | 202 | 0.0 | 1.7 | 0.00 | 0.00 | 0.00 | 68 | 991.0 |
| 20260830235950 | 65 | 180 | 0.9 | 3.5 | 0.00 | 0.00 | 0.00 | 68 | 1075.2 |
| 20260830235450 | 65 | 157 | 0.0 | 3.5 | 0.00 | 0.00 | 0.00 | 68 | 1065.8 |
| 20260830234950 | 65 | 180 | 2.6 | 4.3 | 0.00 | 0.00 | 0.00 | 68 | 1067.4 |
| 20260830234450 | 65 | 180 | 1.7 | 4.3 | 0.00 | 0.00 | 0.00 | 68 | 1062.7 |
| 20260830233950 | 65 | 180 | 1.7 | 5.2 | 0.00 | 0.00 | 0.00 | 68 | 1062.7 |
| 20260830233450 | 65 | 180 | 3.5 | 6.1 | 0.00 | 0.00 | 0.00 | 67 | 1072.1 |
| 20260830233049 | 66 | 157 | 0.9 | 7.0 | 0.00 | 0.00 | 0.00 | 67 | 1076.8 |
| 20260830232950 | 66 | 225 | 3.5 | 7.0 | 0.00 | 0.00 | 0.00 | 67 | 1084.6 |
| 20260830232450 | 66 | 180 | 5.2 | 5.2 | 0.00 | 0.00 | 0.00 | 67 | 1069.0 |
| 20260830231950 | 66 | 202 | 5.2 | 6.1 | 0.00 | 0.00 | 0.00 | 67 | 1067.4 |
| 20260830231450 | 66 | 157 | 1.7 | 5.2 | 0.00 | 0.00 | 0.00 | 66 | 1062.7 |
| 20260830230950 | 66 | 202 | 1.7 | 5.2 | 0.00 | 0.00 | 0.00 | 66 | 1075.3 |
| 20260830230450 | 66 | 202 | 2.6 | 5.2 | 0.00 | 0.00 | 0.00 | 66 | 1073.6 |
| 20260830225950 | 66 | 202 | 4.3 | 5.2 | 0.00 | 0.00 | 0.00 | 65 | 1072.1 |
| 20260830225750 | 66 | 202 | 0.9 | 5.2 | 0.00 | 0.00 | 0.00 | 65 | 1069.0 |
| 20260830225450 | 66 | 180 | 1.7 | 4.3 | 0.00 | 0.00 | 0.00 | 65 | 1065.8 |
| 20260830224951 | 66 | 180 | 1.7 | 4.3 | 0.00 | 0.00 | 0.00 | 65 | 1062.7 |
| 20260830224451 | 67 | 225 | 2.6 | 4.3 | 0.00 | 0.00 | 0.00 | 64 | 1072.1 |
| 20260830223951 | 67 | 202 | 1.7 | 6.1 | 0.00 | 0.00 | 0.00 | 64 | 1071.4 |
| 20260830223451 | 67 | 180 | 1.7 | 3.5 | 0.00 | 0.00 | 0.00 | 64 | 1043.8 |
| 20260830222951 | 67 | 180 | 1.7 | 5.2 | 0.00 | 0.00 | 0.00 | 63 | 1047.9 |
| 20260830222450 | 67 | 180 | 3.5 | 5.2 | 0.00 | 0.00 | 0.00 | 63 | 1051.8 |
| 20260830221951 | 68 | 135 | 2.6 | 4.3 | 0.00 | 0.00 | 0.00 | 63 | 1068.9 |
| 20260830221451 | 68 | 157 | 4.3 | 5.2 | 0.00 | 0.00 | 0.00 | 63 | 1073.7 |
| 20260830220951 | 68 | 180 | 3.5 | 3.5 | 0.00 | 0.00 | 0.00 | 63 | 1067.4 |
| 20260830220451 | 68 | 202 | 0.9 | 5.2 | 0.00 | 0.00 | 0.00 | 62 | 1056.4 |
| 20260830215951 | 68 | 202 | 2.6 | 3.5 | 0.00 | 0.00 | 0.00 | 62 | 1076.8 |
| 20260830215451 | 68 | 180 | 1.7 | 5.2 | 0.00 | 0.00 | 0.00 | 62 | 1036.6 |
| 20260830215150 | 68 | 202 | 1.7 | 5.2 | 0.00 | 0.00 | 0.00 | 62 | 1059.5 |
| 20260830214951 | 68 | 180 | 2.6 | 4.3 | 0.00 | 0.00 | 0.00 | 62 | 1078.4 |
| 20260830214451 | 68 | 180 | 3.5 | 4.3 | 0.00 | 0.00 | 0.00 | 62 | 1064.8 |
| 20260830213951 | 68 | 202 | 3.5 | 5.2 | 0.00 | 0.00 | 0.00 | 61 | 1070.6 |
| 20260830213451 | 68 | 180 | 0.0 | 5.2 | 0.00 | 0.00 | 0.00 | 61 | 1028.7 |
| 20260830212951 | 68 | 157 | 5.2 | 5.2 | 0.00 | 0.00 | 0.00 | 61 | 1072.1 |
| 20260830212451 | 68 | 180 | 1.7 | 4.3 | 0.00 | 0.00 | 0.00 | 60 | 986.1 |
| 20260830211951 | 69 | 157 | 1.7 | 5.2 | 0.00 | 0.00 | 0.00 | 60 | 1081.5 |
| 20260830211850 | 69 | 202 | 2.6 | 5.2 | 0.00 | 0.00 | 0.00 | 60 | 1072.1 |
| 20260830211451 | 69 | 157 | 2.6 | 5.2 | 0.00 | 0.00 | 0.00 | 60 | 1081.5 |
| 20260830210951 | 69 | 157 | 3.5 | 4.3 | 0.00 | 0.00 | 0.00 | 60 | 1064.2 |
| 20260830210451 | 69 | 180 | 2.6 | 3.5 | 0.00 | 0.00 | 0.00 | 60 | 1069.0 |
| 20260830205951 | 69 | 157 | 1.7 | 3.5 | 0.00 | 0.00 | 0.00 | 60 | 1056.3 |
| 20260830205451 | 69 | 157 | 0.9 | 2.6 | 0.00 | 0.00 | 0.00 | 60 | 1072.1 |
| 20260830204951 | 69 | 135 | 2.6 | 2.6 | 0.00 | 0.00 | 0.00 | 60 | 1056.4 |
| 20260830204550 | 69 | 135 | 0.9 | 2.6 | 0.00 | 0.00 | 0.00 | 60 | 1020.8 |
| 20260830204451 | 69 | 135 | 0.0 | 2.6 | 0.00 | 0.00 | 0.00 | 60 | 986.9 |
| 20260830203951 | 69 | 157 | 1.7 | 1.7 | 0.00 | 0.00 | 0.00 | 60 | 1065.8 |
| 20260830203451 | 69 | 157 | 0.9 | 1.7 | 0.00 | 0.00 | 0.00 | 60 | 1079.9 |
| 20260830202951 | 70 | 135 | 0.9 | 2.6 | 0.00 | 0.00 | 0.00 | 59 | 1022.5 |
| 20260830202451 | 70 | 135 | 0.0 | 2.6 | 0.00 | 0.00 | 0.00 | 60 | 996.4 |
| 20260830201951 | 70 | 112 | 0.0 | 2.6 | 0.00 | 0.00 | 0.00 | 59 | 1065.8 |
| 20260830201451 | 70 | 135 | 2.6 | 2.6 | 0.00 | 0.00 | 0.00 | 60 | 1050.1 |
| 20260830201250 | 70 | 135 | 0.9 | 2.6 | 0.00 | 0.00 | 0.00 | 60 | 1069.0 |
| 20260830200951 | 70 | 135 | 2.6 | 3.5 | 0.00 | 0.00 | 0.00 | 60 | 1046.9 |
| 20260830200451 | 70 | 157 | 1.7 | 2.6 | 0.00 | 0.00 | 0.00 | 60 | 1059.5 |
| 20260830195951 | 70 | 112 | 1.7 | 2.6 | 0.00 | 0.00 | 0.00 | 60 | 1075.2 |
| 20260830195451 | 69 | 135 | 0.0 | 3.5 | 0.00 | 0.00 | 0.00 | 60 | 1068.9 |
| 20260830195027 | 69 | 135 | 1.7 | 2.6 | 0.00 | 0.00 | 0.00 | 59 | 1065.8 |
| 20260830194951 | 69 | 135 | 1.7 | 2.6 | 0.00 | 0.00 | 0.00 | 59 | 1065.8 |
| 20260830194451 | 69 | 135 | 1.7 | 1.7 | 0.00 | 0.00 | 0.00 | 59 | 1053.3 |
| 20260830193950 | 69 | 90 | 1.7 | 2.6 | 0.00 | 0.00 | 0.00 | 59 | 1038.2 |
| 20260830193451 | 70 | 135 | 1.7 | 1.7 | 0.00 | 0.00 | 0.00 | 58 | 1062.7 |
| 20260830192951 | 70 | 135 | 1.7 | 1.7 | 0.00 | 0.00 | 0.00 | 58 | 1059.5 |
| 20260830192451 | 70 | 112 | 1.7 | 1.7 | 0.00 | 0.00 | 0.00 | 58 | 1031.9 |
| 20260830191951 | 70 | 112 | 0.9 | 1.7 | 0.00 | 0.00 | 0.00 | 58 | 1069.0 |
| 20260830191451 | 70 | 112 | 0.0 | 1.7 | 0.00 | 0.00 | 0.00 | 58 | 1030.4 |
| 20260830190951 | 70 | 135 | 0.0 | 1.7 | 0.00 | 0.00 | 0.00 | 58 | 1084.6 |
| 20260830190650 | 70 | 112 | 1.7 | 1.7 | 0.00 | 0.00 | 0.00 | 57 | 1081.5 |
| 20260830190451 | 70 | 90 | 1.7 | 1.7 | 0.00 | 0.00 | 0.00 | 57 | 1062.7 |
| 20260830185951 | 70 | 135 | 0.9 | 0.9 | 0.00 | 0.00 | 0.00 | 56 | 1067.5 |
| 20260830185451 | 71 | 90 | 0.9 | 1.7 | 0.00 | 0.00 | 0.00 | 56 | 1059.5 |
| 20260830184951 | 71 | 135 | 1.7 | 1.7 | 0.00 | 0.00 | 0.00 | 55 | 1050.1 |
| 20260830184451 | 71 | 112 | 1.7 | 1.7 | 0.00 | 0.00 | 0.00 | 55 | 1062.6 |
| 20260830183951 | 71 | 90 | 0.0 | 1.7 | 0.00 | 0.00 | 0.00 | 54 | 1028.8 |
| 20260830183451 | 72 | 135 | 0.9 | 1.7 | 0.00 | 0.00 | 0.00 | 53 | 1083.1 |
| 20260830183350 | 72 | 112 | 0.0 | 1.7 | 0.00 | 0.00 | 0.00 | 53 | 1081.5 |
| 20260830182951 | 72 | 112 | 0.0 | 0.9 | 0.00 | 0.00 | 0.00 | 53 | 1041.3 |
| 20260830182451 | 72 | 90 | 0.0 | 0.9 | 0.00 | 0.00 | 0.00 | 52 | 1064.3 |
| 20260830181951 | 73 | 112 | 0.0 | 0.9 | 0.00 | 0.00 | 0.00 | 51 | 1075.2 |
| 20260830181451 | 73 | 135 | 0.0 | 1.7 | 0.00 | 0.00 | 0.00 | 50 | 1051.4 |
| 20260830180951 | 74 | 90 | 0.0 | 1.7 | 0.00 | 0.00 | 0.00 | 49 | 1035.0 |
| 20260830180451 | 74 | 135 | 0.0 | 0.9 | 0.00 | 0.00 | 0.00 | 48 | 1054.6 |
| 20260830180050 | 75 | 112 | 0.9 | 1.7 | 0.00 | 0.00 | 0.00 | 48 | 1084.7 |
| 20260830175951 | 75 | 157 | 0.9 | 1.7 | 0.00 | 0.00 | 0.00 | 48 | 1075.2 |
| 20260830175451 | 75 | 112 | 1.7 | 2.6 | 0.00 | 0.00 | 0.00 | 47 | 1069.0 |
| 20260830174951 | 75 | 67 | 0.0 | 1.7 | 0.00 | 0.00 | 0.00 | 47 | 1068.9 |
| 20260830174451 | 76 | 112 | 0.0 | 1.7 | 0.00 | 0.00 | 0.00 | 46 | 1010.5 |
| 20260830173951 | 76 | 157 | 0.0 | 1.7 | 0.00 | 0.00 | 0.00 | 46 | 1083.1 |
| 20260830173451 | 76 | 112 | 1.7 | 2.6 | 0.00 | 0.00 | 0.00 | 45 | 1071.0 |
| 20260830172951 | 77 | 135 | 1.7 | 4.3 | 0.00 | 0.00 | 0.00 | 45 | 1067.4 |
| 20260830172750 | 77 | 112 | 1.7 | 4.3 | 0.00 | 0.00 | 0.00 | 45 | 1076.8 |
| 20260830172451 | 77 | 135 | 1.7 | 3.5 | 0.00 | 0.00 | 0.00 | 45 | 1065.7 |
| 20260830171951 | 77 | 180 | 0.0 | 3.5 | 0.00 | 0.00 | 0.00 | 44 | 1073.8 |
| 20260830171451 | 78 | 157 | 0.9 | 3.5 | 0.00 | 0.00 | 0.00 | 44 | 1052.4 |
| 20260830170951 | 78 | 112 | 0.0 | 2.6 | 0.00 | 0.00 | 0.00 | 44 | 1062.7 |
| 20260830170451 | 79 | 135 | 1.7 | 3.5 | 0.00 | 0.00 | 0.00 | 43 | 1045.0 |
| 20260830165951 | 79 | 112 | 1.7 | 3.5 | 0.00 | 0.00 | 0.00 | 43 | 1043.7 |
| 20260830165450 | 79 | 157 | 2.6 | 3.5 | 0.00 | 0.00 | 0.00 | 43 | 1059.5 |
| 20260830164951 | 79 | 135 | 2.6 | 2.6 | 0.00 | 0.00 | 0.00 | 42 | 1086.4 |
| 20260830164451 | 79 | 157 | 1.7 | 2.6 | 0.00 | 0.00 | 0.00 | 42 | 1062.7 |
| 20260830163951 | 80 | 157 | 1.7 | 3.5 | 0.00 | 0.00 | 0.00 | 41 | 1075.2 |
| 20260830163451 | 80 | 135 | 2.6 | 3.5 | 0.00 | 0.00 | 0.00 | 41 | 1069.0 |
| 20260830162951 | 81 | 157 | 2.6 | 3.5 | 0.00 | 0.00 | 0.00 | 40 | 1072.1 |
| 20260830162451 | 82 | 157 | 2.6 | 4.3 | 0.00 | 0.00 | 0.00 | 40 | 1075.2 |
| 20260830162150 | 82 | 157 | 1.7 | 4.3 | 0.00 | 0.00 | 0.00 | 39 | 1069.0 |
| 20260830161951 | 82 | 180 | 1.7 | 5.2 | 0.00 | 0.00 | 0.00 | 39 | 1068.9 |
| 20260830161451 | 82 | 157 | 1.7 | 4.3 | 0.00 | 0.00 | 0.00 | 39 | 1072.1 |
| 20260830160951 | 83 | 180 | 1.7 | 5.2 | 0.00 | 0.00 | 0.00 | 38 | 1062.7 |
| 20260830160451 | 84 | 157 | 2.6 | 5.2 | 0.00 | 0.00 | 0.00 | 38 | 1073.8 |
| 20260830155951 | 84 | 135 | 0.9 | 4.3 | 0.00 | 0.00 | 0.00 | 38 | 1065.8 |
| 20260830155451 | 84 | 157 | 3.5 | 4.3 | 0.00 | 0.00 | 0.00 | 37 | 1062.7 |
| 20260830154951 | 84 | 180 | 1.7 | 5.2 | 0.00 | 0.00 | 0.00 | 37 | 1062.7 |
| 20260830154850 | 84 | 202 | 4.3 | 5.2 | 0.00 | 0.00 | 0.00 | 37 | 1069.0 |